Flight Track Log - Related Links

Times and Time Zones

All times are in EDT time to prevent confusion due to time zone crossing. See the SWA2182 flight status page for this flight to view local times or setup timezone preferences in your user account.

Time Position Orientation Groundspeed Altitude Reporting Facility
EDT Latitude Longitude Course Direction KTS MPH feet Rate Location/Type
Wed 09:12:46 AM 38.7333 -121.6000 129° Southeast 184 212 2,700  Level Northern Cal TRACON
Wed 09:14:46 AM 38.6636 -121.4889 129° Southeast 271 312 9,300 3,481 Climbing Oakland Center
Wed 09:15:47 AM 38.6178 -121.3939 122° Southeast 312 359 13,200 3,967 Climbing Oakland Center
Wed 09:16:47 AM 38.5619 -121.2886 124° Southeast 347 399 17,300 3,719 Climbing Oakland Center
Wed 09:17:48 AM 38.5008 -121.1764 125° Southeast 373 429 20,700 3,570 Climbing Oakland Center
Wed 09:18:48 AM 38.4306 -121.0486 125° Southeast 402 463 24,500 3,273 Climbing Oakland Center
Wed 09:19:49 AM 38.3633 -120.9219 124° Southeast 421 484 27,300 2,557 Climbing Oakland Center
Wed 09:20:50 AM 38.2931 -120.7914 124° Southeast 439 505 29,700 2,281 Climbing Oakland Center
Wed 09:21:50 AM 38.2114 -120.6603 128° Southeast 464 534 31,900 2,380 Climbing Oakland Center
Wed 09:22:51 AM 38.1067 -120.5572 142° Southeast 472 543 34,500 2,579 Climbing Oakland Center
Wed 09:23:51 AM 38.0047 -120.4572 142° Southeast 467 537 37,100 2,182 Climbing Oakland Center
Wed 09:24:52 AM 37.8978 -120.3706 147° Southeast 461 531 38,900 1,686 Climbing Oakland Center
Wed 09:25:52 AM 37.7814 -120.3119 158° South 451 519 40,500 1,041 Climbing Oakland Center
Wed 09:26:53 AM 37.6650 -120.2506 157° South 451 519 41,000 246 Climbing Oakland Center
Wed 09:27:54 AM 37.5478 -120.1908 158° South 453 521 41,000  Level Oakland Center
Wed 09:28:54 AM 37.4275 -120.1353 160° South 457 526 41,000  Level Oakland Center
Wed 09:29:55 AM 37.3097 -120.0756 158° South 453 521 41,000  Level Oakland Center
Wed 09:30:55 AM 37.1939 -120.0164 158° South 449 517 41,000  Level Oakland Center
Wed 09:31:56 AM 37.0736 -119.9547 158° South 445 512 41,000  Level Oakland Center
Wed 09:32:57 AM 36.9586 -119.8958 158° South 446 513 41,000  Level Oakland Center
Wed 09:33:58 AM 36.8436 -119.8392 158° South 443 510 41,000  Level Oakland Center
Wed 09:34:58 AM 36.7294 -119.7814 158° South 441 507 41,000  Level Oakland Center
Wed 09:35:59 AM 36.6139 -119.7206 157° South 445 512 41,000  Level Oakland Center
Wed 09:37:00 AM 36.4986 -119.6625 158° South 445 512 41,000  Level Oakland Center
Wed 09:38:00 AM 36.3828 -119.6044 158° South 447 514 41,000  Level Oakland Center
Wed 09:39:01 AM 36.2669 -119.5472 158° South 447 514 41,000  Level Oakland Center
Wed 09:40:02 AM 36.1517 -119.4906 158° South 445 512 41,000  Level Oakland Center
Wed 09:41:03 AM 36.0372 -119.4344 158° South 443 510 41,000  Level Oakland Center
Wed 09:42:04 AM 35.9256 -119.3822 159° South 432 497 41,000  Level Oakland Center
Wed 09:43:04 AM 35.8136 -119.3278 158° South 430 495 41,000  Level Oakland Center
Wed 09:44:05 AM 35.6744 -119.2603 158° South 442 509 41,000  Level Oakland Center
Wed 09:45:06 AM 35.5606 -119.2056 159° South 441 507 41,000  Level Oakland Center
Wed 09:45:24 AM 35.5628 -119.2056 360° North 436 502 41,000  Level Los Angeles Center
Wed 09:46:26 AM 35.4292 -119.1403 158° South 431 496 41,000  Level Los Angeles Center
Wed 09:47:27 AM 35.3161 -119.0861 159° South 433 498 41,000  Level Los Angeles Center
Wed 09:48:29 AM 35.2036 -119.0317 158° South 433 498 41,000  Level Los Angeles Center
Wed 09:49:30 AM 35.0669 -118.9675 159° South 437 503 41,000  Level Los Angeles Center
Wed 09:50:31 AM 34.9522 -118.9133 159° South 439 505 41,000 -244 Level Los Angeles Center
Wed 09:51:33 AM 34.8439 -118.8611 158° South 439 505 40,500 -732 Descending Los Angeles Center
Wed 09:52:34 AM 34.7339 -118.8100 159° South 428 493 39,500 -738 Descending Los Angeles Center
Wed 09:53:35 AM 34.6486 -118.7706 159° South 414 476 39,000 -244 Descending Los Angeles Center
Wed 09:54:37 AM 34.5197 -118.7097 159° South 414 476 39,000  Level Los Angeles Center
Wed 09:55:39 AM 34.4136 -118.6589 158° South 411 473 39,000  Level Los Angeles Center
Wed 09:56:40 AM 34.2853 -118.5983 159° South 412 474 39,000  Level Los Angeles Center
Wed 09:57:42 AM 34.1789 -118.5489 159° South 410 472 39,000 -146 Level Los Angeles Center
Wed 09:58:43 AM 34.0736 -118.4989 159° South 407 468 38,700 -634 Descending Los Angeles Center
Wed 09:59:45 AM 33.9675 -118.4492 159° South 410 472 37,700 -927 Descending Los Angeles Center
Wed 10:00:46 AM 33.8772 -118.3594 140° Southeast 428 493 36,800 -927 Descending Los Angeles Center
Wed 10:01:48 AM 33.7964 -118.2603 134° Southeast 429 494 35,800 -1,512 Descending Los Angeles Center
Wed 10:02:49 AM 33.7094 -118.1453 132° Southeast 427 491 33,700 -2,537 Descending Los Angeles Center
Wed 10:03:51 AM 33.6269 -118.0408 133° Southeast 429 494 30,600 -2,780 Descending Los Angeles Center
Wed 10:04:52 AM 33.5467 -117.9394 134° Southeast 419 482 28,000 -2,488 Descending Los Angeles Center
Wed 10:05:54 AM 33.4689 -117.8414 134° Southeast 408 470 25,500 -2,759 Descending Los Angeles Center
Wed 10:06:19 AM 33.4333 -117.7833 126° Southeast 386 444 24,000 -2,835 Descending Southern California TRACON
Wed 10:07:25 AM 33.3500 -117.6833 135° Southeast 385 443 21,200 -2,449 Descending Southern California TRACON
Wed 10:07:57 AM 33.3061 -117.6361 138° Southeast 382 440 20,000 -2,333 Descending Los Angeles Center
Wed 10:08:19 AM 33.2833 -117.6000 127° Southeast 373 429 19,100 -2,488 Descending Southern California TRACON
Wed 10:09:19 AM 33.2000 -117.5333 146° Southeast 365 420 16,600 -2,278 Descending Southern California TRACON
Wed 10:10:07 AM 33.1333 -117.4667 140° Southeast 352 405 15,000 -1,806 Descending Southern California TRACON
Wed 10:11:02 AM 33.0786 -117.4222 146° Southeast 336 387 13,500 -1,949 Descending Los Angeles Center
Wed 10:12:04 AM 33.0033 -117.3608 146° Southeast 328 377 11,200 -2,416 Descending Los Angeles Center
Wed 10:12:19 AM 32.9667 -117.3333 148° Southeast 328 377 10,400 -1,391 Descending Southern California TRACON
Wed 10:13:13 AM 32.9167 -117.2833 140° Southeast 291 335 9,600 -1,167 Descending Southern California TRACON
Wed 10:14:07 AM 32.8653 -117.2514 152° Southeast 287 330 8,300 -1,345 Descending Los Angeles Center
Wed 10:15:09 AM 32.8036 -117.1983 144° Southeast 276 318 7,000 -1,000 Descending Los Angeles Center
Wed 10:16:07 AM 32.8000 -117.1000 92° East 234 269 6,300 -774 Descending Southern California TRACON
Wed 10:17:13 AM 32.7833 -117.0167 103° East 215 247 5,400 -756 Descending Southern California TRACON
Wed 10:18:14 AM 32.7667 -116.9500 107° East 214 246 4,700 -694 Descending Southern California TRACON
Wed 10:19:14 AM 32.7167 -116.9333 164° South 185 213 4,000 -450 Descending Southern California TRACON
Wed 10:20:14 AM 32.6833 -116.9667 220° Southwest 209 241 3,800 -667 Descending Southern California TRACON
Wed 10:21:20 AM 32.7000 -117.0333 287° West 195 224 2,600 -1,000 Descending Southern California TRACON
Wed 10:22:20 AM 32.7000 -117.0833 270° West 136 157 1,700 -789 Descending Southern California TRACON
Wed 10:23:14 AM 32.7167 -117.1167 301° West 127 146 1,100 -667 Descending Southern California TRACON
Wed 10:24:08 AM 32.7333 -117.1500 301° West 122 140 500 -600 Descending Southern California TRACON
Wed 10:24:24 AM 32.7272 -117.1589 231° Southwest 127 146 400 -375 Descending Los Angeles Center

Login

Don't have an account? Register now (free) for customized features, flight alerts, and more!